When you browse on this site, cookies collect data to enhance your experience and personalize the content and advertising you see.
Visit our Privacy Policy to learn more. By continuing to use the site, you agree to this use of cookies and data.
  • In Spain
  • List of Countries
  • For 7 days
  • Water Temperature
  • Weather Map
  • Weather Widgets
  • user-avatar
    Login

    Hourly Weather Madrid

    Today, 23 January, Thursday

    Time Temperature Precipitation Wind Pressure Humidity
    00:00 +4°C° 0 mm 3 mps 707 mmHg 84%
    01:00 +4°C° 0 mm 3 mps 707 mmHg 84%
    02:00 +3°C° 0 mm 3 mps 707 mmHg 85%
    03:00 +3°C° 0 mm 3 mps 706 mmHg 86%
    04:00 +4°C° 0 mm 2 mps 706 mmHg 86%
    05:00 +3°C° 0 mm 2 mps 706 mmHg 86%
    06:00 +3°C° 0 mm 2 mps 706 mmHg 85%
    07:00 +3°C° 0 mm 3 mps 706 mmHg 83%
    08:00 +3°C° 0 mm 3 mps 706 mmHg 81%
    09:00 +4°C° 0 mm 3 mps 707 mmHg 79%
    10:00 +5°C° 0 mm 3 mps 707 mmHg 75%
    11:00 +7°C° 0 mm 2 mps 707 mmHg 70%
    12:00 +10°C° 0 mm 1 mps 707 mmHg 65%
    13:00 +10°C° 0 mm 1 mps 707 mmHg 63%
    14:00 +10°C° 0 mm 2 mps 706 mmHg 61%
    15:00 +10°C° 0 mm 2 mps 706 mmHg 58%
    16:00 +10°C° 0 mm 2 mps 706 mmHg 63%
    17:00 +10°C° 0 mm 1 mps 706 mmHg 68%
    18:00 +9°C° 0 mm 1 mps 706 mmHg 72%
    19:00 +7°C° 0 mm 2 mps 707 mmHg 75%
    20:00 +7°C° 0 mm 2 mps 707 mmHg 77%
    21:00 +7°C° 0 mm 3 mps 707 mmHg 79%
    22:00 +7°C° 0 mm 3 mps 708 mmHg 82%
    23:00 +7°C° 0 mm 3 mps 708 mmHg 84%

    Tomorrow, 24 January, Friday

    Time Temperature Precipitation Wind Pressure Humidity
    00:00 +5°C° 0 mm 3 mps 708 mmHg 87%
    01:00 +5°C° 0 mm 3 mps 708 mmHg 88%
    02:00 +5°C° 0 mm 3 mps 708 mmHg 88%
    03:00 +5°C° 0 mm 3 mps 707 mmHg 89%
    04:00 +5°C° 0 mm 3 mps 707 mmHg 89%
    05:00 +6°C° 0 mm 2 mps 708 mmHg 89%
    06:00 +6°C° 0 mm 2 mps 708 mmHg 89%
    07:00 +6°C° 0.3 mm 2 mps 708 mmHg 89%
    08:00 +5°C° 0.3 mm 3 mps 708 mmHg 88%
    09:00 +5°C° 0.3 mm 3 mps 708 mmHg 87%
    10:00 +5°C° 0.3 mm 3 mps 708 mmHg 85%
    11:00 +7°C° 0.3 mm 3 mps 708 mmHg 83%
    12:00 +7°C° 0.3 mm 3 mps 708 mmHg 80%
    13:00 +7°C° 0.1 mm 2 mps 707 mmHg 79%
    14:00 +8°C° 0.1 mm 2 mps 707 mmHg 77%
    15:00 +9°C° 0.1 mm 1 mps 707 mmHg 76%
    16:00 +9°C° 0 mm 1 mps 707 mmHg 78%
    17:00 +8°C° 0 mm 1 mps 707 mmHg 80%
    18:00 +8°C° 0 mm 1 mps 707 mmHg 82%
    19:00 +8°C° 0 mm 1 mps 707 mmHg 83%
    20:00 +7°C° 0 mm 1 mps 707 mmHg 84%
    21:00 +6°C° 0 mm 2 mps 707 mmHg 85%
    22:00 +6°C° 0 mm 2 mps 707 mmHg 85%
    23:00 +6°C° 0 mm 2 mps 707 mmHg 85%

    Day after tomorrow, 25 January, Saturday

    Time Temperature Precipitation Wind Pressure Humidity
    00:00 +6°C° 0 mm 2 mps 707 mmHg 85%
    01:00 +6°C° 0.5 mm 2 mps 707 mmHg 87%
    02:00 +6°C° 0.5 mm 2 mps 706 mmHg 89%
    03:00 +6°C° 0.5 mm 2 mps 706 mmHg 92%
    04:00 +6°C° 1.5 mm 2 mps 706 mmHg 93%
    05:00 +5°C° 1.5 mm 3 mps 705 mmHg 94%
    06:00 +5°C° 1.5 mm 3 mps 705 mmHg 95%
    07:00 +5°C° 0.3 mm 3 mps 706 mmHg 94%
    08:00 +5°C° 0.3 mm 3 mps 706 mmHg 93%
    09:00 +7°C° 0.3 mm 3 mps 706 mmHg 92%
    10:00 +8°C° 0.3 mm 3 mps 706 mmHg 86%
    11:00 +9°C° 0.3 mm 3 mps 706 mmHg 79%
    12:00 +10°C° 0.3 mm 3 mps 706 mmHg 73%
    13:00 +10°C° 0.3 mm 3 mps 706 mmHg 73%
    14:00 +10°C° 0.3 mm 3 mps 705 mmHg 74%
    15:00 +10°C° 0.3 mm 4 mps 705 mmHg 74%
    16:00 +8°C° 0.3 mm 4 mps 705 mmHg 78%
    17:00 +8°C° 0.3 mm 3 mps 705 mmHg 82%
    18:00 +7°C° 0.3 mm 3 mps 706 mmHg 86%
    19:00 +7°C° 0.1 mm 3 mps 706 mmHg 87%
    20:00 +7°C° 0.1 mm 2 mps 707 mmHg 88%
    21:00 +8°C° 0.1 mm 1 mps 707 mmHg 89%
    22:00 +8°C° 0.1 mm 1 mps 707 mmHg 89%
    23:00 +8°C° 0.1 mm 1 mps 707 mmHg 89%

    26 January, Sunday

    Time Temperature Precipitation Wind Pressure Humidity
    00:00 +8°C° 0.1 mm 1 mps 707 mmHg 89%
    01:00 +7°C° 0.1 mm 1 mps 707 mmHg 90%
    02:00 +7°C° 0.1 mm 1 mps 708 mmHg 91%
    03:00 +7°C° 0.1 mm 1 mps 708 mmHg 93%
    04:00 +6°C° 0 mm 1 mps 708 mmHg 93%
    05:00 +6°C° 0 mm 1 mps 708 mmHg 93%
    06:00 +5°C° 0 mm 1 mps 708 mmHg 93%
    07:00 +6°C° 0 mm 1 mps 708 mmHg 91%
    08:00 +6°C° 0 mm 1 mps 709 mmHg 88%
    09:00 +7°C° 0 mm 1 mps 709 mmHg 85%
    10:00 +8°C° 0 mm 1 mps 710 mmHg 80%
    11:00 +8°C° 0 mm 2 mps 710 mmHg 75%
    12:00 +9°C° 0 mm 2 mps 710 mmHg 70%
    13:00 +9°C° 0 mm 2 mps 710 mmHg 68%
    14:00 +9°C° 0 mm 3 mps 709 mmHg 66%
    15:00 +10°C° 0 mm 4 mps 709 mmHg 65%
    16:00 +8°C° 0 mm 4 mps 709 mmHg 70%
    17:00 +8°C° 0 mm 3 mps 710 mmHg 76%
    18:00 +7°C° 0 mm 3 mps 710 mmHg 82%
    19:00 +7°C° 0 mm 3 mps 710 mmHg 83%
    20:00 +5°C° 0 mm 3 mps 710 mmHg 85%
    21:00 +6°C° 0 mm 2 mps 711 mmHg 86%
    22:00 +5°C° 0 mm 2 mps 711 mmHg 87%
    23:00 +5°C° 0 mm 2 mps 711 mmHg 87%

    27 January, Monday

    Time Temperature Precipitation Wind Pressure Humidity
    00:00 +5°C° 0 mm 2 mps 711 mmHg 88%
    01:00 +5°C° 0 mm 1 mps 711 mmHg 88%
    02:00 +5°C° 0 mm 1 mps 711 mmHg 89%
    03:00 +5°C° 0 mm 1 mps 710 mmHg 90%
    04:00 +5°C° 0 mm 1 mps 710 mmHg 90%
    05:00 +5°C° 0 mm 1 mps 710 mmHg 91%
    06:00 +4°C° 0 mm 1 mps 710 mmHg 92%
    07:00 +5°C° 0 mm 1 mps 710 mmHg 91%
    08:00 +6°C° 0 mm 1 mps 711 mmHg 90%
    09:00 +6°C° 0 mm 1 mps 711 mmHg 89%
    10:00 +7°C° 0 mm 1 mps 711 mmHg 86%
    11:00 +7°C° 0 mm 2 mps 711 mmHg 83%
    12:00 +7°C° 0 mm 2 mps 710 mmHg 80%
    13:00 +8°C° 0 mm 2 mps 710 mmHg 79%
    14:00 +8°C° 0 mm 3 mps 709 mmHg 77%
    15:00 +9°C° 0 mm 3 mps 709 mmHg 76%
    16:00 +9°C° 0 mm 3 mps 709 mmHg 78%
    17:00 +8°C° 0 mm 2 mps 709 mmHg 81%
    18:00 +8°C° 0 mm 2 mps 709 mmHg 84%
    19:00 +8°C° 0 mm 2 mps 709 mmHg 86%
    20:00 +7°C° 0 mm 2 mps 709 mmHg 88%
    21:00 +7°C° 0 mm 2 mps 709 mmHg 90%
    22:00 +7°C° 0 mm 2 mps 709 mmHg 90%
    23:00 +7°C° 0 mm 2 mps 709 mmHg 89%

    28 January, Tuesday

    Time Temperature Precipitation Wind Pressure Humidity
    00:00 +7°C° 0 mm 3 mps 709 mmHg 89%
    01:00 +7°C° 0 mm 3 mps 709 mmHg 90%
    02:00 +6°C° 0 mm 4 mps 708 mmHg 90%
    03:00 +6°C° 0 mm 4 mps 708 mmHg 91%
    04:00 +6°C° 0 mm 4 mps 708 mmHg 91%
    05:00 +6°C° 0 mm 4 mps 708 mmHg 92%
    06:00 +7°C° 0 mm 4 mps 707 mmHg 92%
    07:00 +7°C° 0 mm 4 mps 708 mmHg 91%
    08:00 +7°C° 0 mm 4 mps 708 mmHg 89%
    09:00 +7°C° 0 mm 4 mps 708 mmHg 88%
    10:00 +8°C° 0.1 mm 5 mps 708 mmHg 85%
    11:00 +9°C° 0.1 mm 5 mps 708 mmHg 82%
    12:00 +9°C° 0.1 mm 6 mps 708 mmHg 79%
    13:00 +9°C° 0.1 mm 5 mps 708 mmHg 79%
    14:00 +9°C° 0.1 mm 5 mps 707 mmHg 79%
    15:00 +10°C° 0.1 mm 5 mps 707 mmHg 78%
    16:00 +9°C° 0.1 mm 5 mps 707 mmHg 82%
    17:00 +10°C° 0.1 mm 4 mps 707 mmHg 85%
    18:00 +8°C° 0.1 mm 4 mps 707 mmHg 89%
    19:00 +8°C° 0 mm 4 mps 708 mmHg 90%
    20:00 +8°C° 0 mm 4 mps 708 mmHg 90%
    21:00 +9°C° 0 mm 3 mps 708 mmHg 91%
    22:00 +9°C° 0 mm 3 mps 708 mmHg 92%
    23:00 +9°C° 0 mm 3 mps 708 mmHg 92%
    Show more